Veracruz Airport, Mexico

1:59 AM CST on February 18, 2018 (GMT -0600)
Gen Heriberto Jara International

Weather History for MMVR - October, 2012

Change the Weather History Date:

Wednesday, October 10, 2012

  Actual Average Record
Temperature  
Mean Temperature 80 °F -  
Max Temperature 87 °F 84 °F 91 °F (2003)
Min Temperature 73 °F 69 °F 66 °F (2000)
Cooling Degree Days 15    
Growing Degree Days 30 (Base 50)    
Moisture  
Dew Point 73 °F    
Average Humidity 76    
Maximum Humidity 94    
Minimum Humidity 58    
Precipitation  
Precipitation 0.00 in - - ()
Sea Level Pressure  
Sea Level Pressure 29.97 in    
Wind  
Wind Speed 4 mph ()    
Max Wind Speed 9 mph    
Max Gust Speed -    
Visibility 6.6 miles    
Events      
Averages and records for this station are not official NWS values.
T = Trace of Precipitation, MM = Missing Value Source: Averaged Metar Reports

Daily Weather History Graph

Daily Weather History Graph

Search for Another Location

Airport or City:

Trip Planner

Search our weather history database for the weather conditions in past years. The results will help you decide how hot, cold, wet, or windy it might be!

Date:

Astronomy

Oct. 10, 2012 Rise Set
Actual Time 7:17 AM CDT 7:05 PM CDT
Civil Twilight 6:55 AM CDT 7:27 PM CDT
Nautical Twilight 6:30 AM CDT 7:52 PM CDT
Astronomical Twilight 6:04 AM CDT 8:18 PM CDT
Moon 2:35 AM CDT (10/10) 3:32 PM CDT (10/10)
Length of Visible Light 12h 31m
Length of Day
11h 47m
Waning Crescent, 27% of the Moon is Illuminated
Oct 10
Waning Crescent
Oct 15
New
Oct 21
First Quarter
Oct 29
Full
Nov 6
Last Quarter

Hourly Weather History & Observations

Time (CDT) Temp. Heat Index Dew Point Humidity Pressure Visibility Wind Dir Wind Speed Gust Speed Precip Events Conditions
5:53 AM 73.4 °F - 71.6 °F 94% 29.96 in 7.0 mi NNW 3.5 mph - N/A   Clear
6:54 AM 73.4 °F - 71.6 °F 94% 29.94 in 7.0 mi NW 3.5 mph - N/A   Clear
7:46 AM 73.4 °F - 71.6 °F 94% 30.00 in 7.0 mi NW 4.6 mph - N/A   Mostly Cloudy
8:45 AM 77.0 °F - 73.4 °F 89% 30.01 in 7.0 mi WNW 4.6 mph - N/A   Mostly Cloudy
9:46 AM 80.6 °F 85.4 °F 73.4 °F 79% 29.99 in 7.0 mi NW 4.6 mph - N/A   Mostly Cloudy
10:42 AM 86.0 °F 91.8 °F 71.6 °F 62% 30.03 in 7.0 mi Calm Calm - N/A   Mostly Cloudy
11:42 AM 86.0 °F 90.4 °F 69.8 °F 58% 30.01 in 7.0 mi East 2.3 mph - N/A   Mostly Cloudy
12:43 PM 84.2 °F 89.6 °F 71.6 °F 66% 29.98 in 7.0 mi North 2.3 mph - N/A   Mostly Cloudy
1:43 PM 87.8 °F 93.8 °F 71.6 °F 58% 29.96 in 7.0 mi NNE 6.9 mph - N/A   Mostly Cloudy
2:47 PM 87.8 °F 95.6 °F 73.4 °F 62% 29.94 in 7.0 mi North 4.6 mph - N/A   Mostly Cloudy
3:40 PM 86.0 °F 93.4 °F 73.4 °F 66% 29.91 in 7.0 mi East 9.2 mph - N/A   Scattered Clouds
4:46 PM 86.0 °F 93.4 °F 73.4 °F 66% 29.90 in 6.0 mi East 5.8 mph - N/A   Scattered Clouds
5:43 PM 84.2 °F 92.3 °F 75.2 °F 74% 29.92 in 6.0 mi East 9.2 mph - N/A   Mostly Cloudy
6:47 PM 82.4 °F 88.2 °F 73.4 °F 74% 29.88 in 6.0 mi NE 6.9 mph - N/A   Overcast
7:43 PM 80.6 °F 85.4 °F 73.4 °F 79% 29.94 in 6.0 mi NNE 3.5 mph - N/A   Mostly Cloudy
8:41 PM 80.6 °F 85.4 °F 73.4 °F 79% 29.98 in 6.0 mi North 4.6 mph - N/A   Mostly Cloudy
9:45 PM 80.6 °F 85.4 °F 73.4 °F 79% 29.96 in 6.0 mi North 5.8 mph - N/A   Mostly Cloudy
10:42 PM 78.8 °F - 73.4 °F 83% 30.02 in 6.0 mi NW 3.5 mph - N/A   Mostly Cloudy
11:45 PM 78.8 °F - 73.4 °F 83% 30.01 in 6.0 mi NNW 4.6 mph - N/A   Overcast